owner,sensor,date,latitude,longitude,vertical_datum,wind_speed,wind_to_direction,wind_speed_of_gust,qcFlag 
SCCF RECON,ioos:station:SCCF:53:1,2012-06-01T00:00:00Z,26.6493,-81.8810,2.11,4.3,236.0,-9999.0,'1111122,1111122,1111122' 
SCCF RECON,ioos:station:SCCF:53:1,2012-06-01T00:15:00Z,26.6493,-81.8810,2.11,4.1,254.7,-9999.0,'1111122,1111122,1111122' 
SCCF RECON,ioos:station:SCCF:53:1,2012-06-01T00:30:00Z,26.6493,-81.8810,2.11,2.8,253.8,-9999.0,'1111122,1111122,1111122' 
SCCF RECON,ioos:station:SCCF:53:1,2012-06-01T00:45:00Z,26.6493,-81.8810,2.11,2.9,255.3,-9999.0,'1111122,1111122,1111122' 
SCCF RECON,ioos:station:SCCF:53:1,2012-06-01T01:00:00Z,26.6493,-81.8810,2.11,2.4,254.9,-9999.0,'1111122,1111122,1111122' 
SCCF RECON,ioos:station:SCCF:53:1,2012-06-01T01:15:00Z,26.6493,-81.8810,2.11,3.1,222.1,-9999.0,'1111122,1111122,1111122' 
SCCF RECON,ioos:station:SCCF:53:1,2012-06-01T01:30:00Z,26.6493,-81.8810,2.11,1.7,239.7,-9999.0,'1111122,1111122,1111122' 
SCCF RECON,ioos:station:SCCF:53:1,2012-06-01T01:45:00Z,26.6493,-81.8810,2.11,1.6,195.5,-9999.0,'1111122,1111122,1111122' 
SCCF RECON,ioos:station:SCCF:53:1,2012-06-01T02:00:00Z,26.6493,-81.8810,2.11,2.3,193.1,-9999.0,'1111122,1111122,1111122' 
SCCF RECON,ioos:station:SCCF:53:1,2012-06-01T02:15:00Z,26.6493,-81.8810,2.11,2.0,173.5,-9999.0,'1111122,1111122,1111122' 
SCCF RECON,ioos:station:SCCF:53:1,2012-06-01T02:30:00Z,26.6493,-81.8810,2.11,2.3,192.5,-9999.0,'1111122,1111122,1111122' 
SCCF RECON,ioos:station:SCCF:53:1,2012-06-01T02:45:00Z,26.6493,-81.8810,2.11,2.2,185.3,-9999.0,'1111122,1111122,1111122' 
SCCF RECON,ioos:station:SCCF:53:1,2012-06-01T03:00:00Z,26.6493,-81.8810,2.11,1.9,195.8,-9999.0,'1111122,1111122,1111122' 
SCCF RECON,ioos:station:SCCF:53:1,2012-06-01T03:15:00Z,26.6493,-81.8810,2.11,1.0,192.0,-9999.0,'1111122,1111122,1111122' 
SCCF RECON,ioos:station:SCCF:53:1,2012-06-01T03:30:00Z,26.6493,-81.8810,2.11,1.4,191.1,-9999.0,'1111122,1111122,1111122' 
SCCF RECON,ioos:station:SCCF:53:1,2012-06-01T03:45:00Z,26.6493,-81.8810,2.11,1.4,175.0,-9999.0,'1111122,1111122,1111122' 
SCCF RECON,ioos:station:SCCF:53:1,2012-06-01T04:00:00Z,26.6493,-81.8810,2.11,2.5,165.2,-9999.0,'1111122,1111122,1111122' 
SCCF RECON,ioos:station:SCCF:53:1,2012-06-01T04:15:00Z,26.6493,-81.8810,2.11,1.5,161.8,-9999.0,'1111122,1111122,1111122' 
SCCF RECON,ioos:station:SCCF:53:1,2012-06-01T04:30:00Z,26.6493,-81.8810,2.11,1.8,144.9,-9999.0,'1111122,1111122,1111122' 
SCCF RECON,ioos:station:SCCF:53:1,2012-06-01T04:45:00Z,26.6493,-81.8810,2.11,1.9,134.9,-9999.0,'1111122,1111122,1111122' 
SCCF RECON,ioos:station:SCCF:53:1,2012-06-01T05:00:00Z,26.6493,-81.8810,2.11,1.1,172.0,-9999.0,'1111122,1111122,1111122' 
SCCF RECON,ioos:station:SCCF:53:1,2012-06-01T05:15:00Z,26.6493,-81.8810,2.11,1.9,176.6,-9999.0,'1111122,1111122,1111122' 
SCCF RECON,ioos:station:SCCF:53:1,2012-06-01T05:30:00Z,26.6493,-81.8810,2.11,2.3,172.0,-9999.0,'1111122,1111122,1111122' 
SCCF RECON,ioos:station:SCCF:53:1,2012-06-01T05:45:00Z,26.6493,-81.8810,2.11,2.9,173.3,-9999.0,'1111122,1111122,1111122' 
SCCF RECON,ioos:station:SCCF:53:1,2012-06-01T06:00:00Z,26.6493,-81.8810,2.11,2.5,170.0,-9999.0,'1111122,1111122,1111122' 
SCCF RECON,ioos:station:SCCF:53:1,2012-06-01T06:15:00Z,26.6493,-81.8810,2.11,2.1,189.1,-9999.0,'1111122,1111122,1111122' 
SCCF RECON,ioos:station:SCCF:53:1,2012-06-01T06:30:00Z,26.6493,-81.8810,2.11,2.1,178.6,-9999.0,'1111122,1111122,1111122' 
SCCF RECON,ioos:station:SCCF:53:1,2012-06-01T06:45:00Z,26.6493,-81.8810,2.11,2.5,181.2,-9999.0,'1111122,1111122,1111122' 
SCCF RECON,ioos:station:SCCF:53:1,2012-06-01T07:00:00Z,26.6493,-81.8810,2.11,2.0,167.7,-9999.0,'1111122,1111122,1111122' 
SCCF RECON,ioos:station:SCCF:53:1,2012-06-01T07:15:00Z,26.6493,-81.8810,2.11,2.6,157.1,-9999.0,'1111122,1111122,1111122' 
SCCF RECON,ioos:station:SCCF:53:1,2012-06-01T07:30:00Z,26.6493,-81.8810,2.11,2.7,128.7,-9999.0,'1111122,1111122,1111122' 
SCCF RECON,ioos:station:SCCF:53:1,2012-06-01T07:45:00Z,26.6493,-81.8810,2.11,3.2,146.8,-9999.0,'1111122,1111122,1111122' 
SCCF RECON,ioos:station:SCCF:53:1,2012-06-01T08:00:00Z,26.6493,-81.8810,2.11,4.3,148.8,-9999.0,'1111122,1111122,1111122' 
SCCF RECON,ioos:station:SCCF:53:1,2012-06-01T08:15:00Z,26.6493,-81.8810,2.11,3.0,151.4,-9999.0,'1111122,1111122,1111122' 
SCCF RECON,ioos:station:SCCF:53:1,2012-06-01T08:30:00Z,26.6493,-81.8810,2.11,3.1,149.1,-9999.0,'1111122,1111122,1111122' 
SCCF RECON,ioos:station:SCCF:53:1,2012-06-01T08:45:00Z,26.6493,-81.8810,2.11,4.5,163.7,-9999.0,'1111122,1111122,1111122' 
SCCF RECON,ioos:station:SCCF:53:1,2012-06-01T09:00:00Z,26.6493,-81.8810,2.11,5.0,148.1,-9999.0,'1111122,1111122,1111122' 
SCCF RECON,ioos:station:SCCF:53:1,2012-06-01T09:15:00Z,26.6493,-81.8810,2.11,3.7,152.4,-9999.0,'1111122,1111122,1111122' 
SCCF RECON,ioos:station:SCCF:53:1,2012-06-01T09:30:00Z,26.6493,-81.8810,2.11,4.1,168.0,-9999.0,'1111122,1111122,1111122' 
SCCF RECON,ioos:station:SCCF:53:1,2012-06-01T09:45:00Z,26.6493,-81.8810,2.11,5.3,156.1,-9999.0,'1111122,1111122,1111122' 
SCCF RECON,ioos:station:SCCF:53:1,2012-06-01T10:00:00Z,26.6493,-81.8810,2.11,3.5,160.7,-9999.0,'1111122,1111122,1111122' 
SCCF RECON,ioos:station:SCCF:53:1,2012-06-01T10:15:00Z,26.6493,-81.8810,2.11,3.1,180.9,-9999.0,'1111122,1111122,1111122' 
SCCF RECON,ioos:station:SCCF:53:1,2012-06-01T10:30:00Z,26.6493,-81.8810,2.11,3.3,157.1,-9999.0,'1111122,1111122,1111122' 
SCCF RECON,ioos:station:SCCF:53:1,2012-06-01T10:45:00Z,26.6493,-81.8810,2.11,3.7,142.6,-9999.0,'1111122,1111122,1111122' 
SCCF RECON,ioos:station:SCCF:53:1,2012-06-01T11:00:00Z,26.6493,-81.8810,2.11,3.6,157.4,-9999.0,'1111122,1111122,1111122' 
SCCF RECON,ioos:station:SCCF:53:1,2012-06-01T11:15:00Z,26.6493,-81.8810,2.11,4.2,143.3,-9999.0,'1111122,1111122,1111122' 
SCCF RECON,ioos:station:SCCF:53:1,2012-06-01T11:30:00Z,26.6493,-81.8810,2.11,2.2,161.7,-9999.0,'1111122,1111122,1111122' 
SCCF RECON,ioos:station:SCCF:53:1,2012-06-01T11:45:00Z,26.6493,-81.8810,2.11,4.2,140.5,-9999.0,'1111122,1111122,1111122' 
SCCF RECON,ioos:station:SCCF:53:1,2012-06-01T12:00:00Z,26.6493,-81.8810,2.11,2.6,122.4,-9999.0,'1111122,1111122,1111122' 
SCCF RECON,ioos:station:SCCF:53:1,2012-06-01T12:15:00Z,26.6493,-81.8810,2.11,1.8,183.0,-9999.0,'1111122,1111122,1111122' 
SCCF RECON,ioos:station:SCCF:53:1,2012-06-01T12:30:00Z,26.6493,-81.8810,2.11,2.0,176.7,-9999.0,'1111122,1111122,1111122' 
SCCF RECON,ioos:station:SCCF:53:1,2012-06-01T12:45:00Z,26.6493,-81.8810,2.11,1.1,196.3,-9999.0,'1111122,1111122,1111122' 
SCCF RECON,ioos:station:SCCF:53:1,2012-06-01T13:00:00Z,26.6493,-81.8810,2.11,4.5,140.9,-9999.0,'1111122,1111122,1111122' 
SCCF RECON,ioos:station:SCCF:53:1,2012-06-01T13:15:00Z,26.6493,-81.8810,2.11,3.2,178.8,-9999.0,'1111122,1111122,1111122' 
SCCF RECON,ioos:station:SCCF:53:1,2012-06-01T13:30:00Z,26.6493,-81.8810,2.11,2.9,200.0,-9999.0,'1111122,1111122,1111122' 
SCCF RECON,ioos:station:SCCF:53:1,2012-06-01T13:45:00Z,26.6493,-81.8810,2.11,5.2,203.5,-9999.0,'1111122,1111122,1111122' 
SCCF RECON,ioos:station:SCCF:53:1,2012-06-01T14:00:00Z,26.6493,-81.8810,2.11,5.3,194.7,-9999.0,'1111122,1111122,1111122' 
SCCF RECON,ioos:station:SCCF:53:1,2012-06-01T14:15:00Z,26.6493,-81.8810,2.11,3.4,169.3,-9999.0,'1111122,1111122,1111122' 
SCCF RECON,ioos:station:SCCF:53:1,2012-06-01T14:30:00Z,26.6493,-81.8810,2.11,3.3,150.1,-9999.0,'1111122,1111122,1111122' 
SCCF RECON,ioos:station:SCCF:53:1,2012-06-01T14:45:00Z,26.6493,-81.8810,2.11,2.8,158.3,-9999.0,'1111122,1111122,1111122' 
SCCF RECON,ioos:station:SCCF:53:1,2012-06-01T15:00:00Z,26.6493,-81.8810,2.11,2.2,151.6,-9999.0,'1111122,1111122,1111122' 
SCCF RECON,ioos:station:SCCF:53:1,2012-06-01T15:15:00Z,26.6493,-81.8810,2.11,3.6,200.0,-9999.0,'1111122,1111122,1111122' 
SCCF RECON,ioos:station:SCCF:53:1,2012-06-01T15:30:00Z,26.6493,-81.8810,2.11,4.0,175.5,-9999.0,'1111122,1111122,1111122' 
SCCF RECON,ioos:station:SCCF:53:1,2012-06-01T15:45:00Z,26.6493,-81.8810,2.11,2.2,155.4,-9999.0,'1111122,1111122,1111122' 
SCCF RECON,ioos:station:SCCF:53:1,2012-06-01T16:00:00Z,26.6493,-81.8810,2.11,6.4,166.7,-9999.0,'1111122,1111122,1111122' 
SCCF RECON,ioos:station:SCCF:53:1,2012-06-01T16:15:00Z,26.6493,-81.8810,2.11,4.8,190.2,-9999.0,'1111122,1111122,1111122' 
SCCF RECON,ioos:station:SCCF:53:1,2012-06-01T16:30:00Z,26.6493,-81.8810,2.11,2.4,136.7,-9999.0,'1111122,1111122,1111122' 
SCCF RECON,ioos:station:SCCF:53:1,2012-06-01T16:45:00Z,26.6493,-81.8810,2.11,4.2,196.0,-9999.0,'1111122,1111122,1111122' 
SCCF RECON,ioos:station:SCCF:53:1,2012-06-01T17:00:00Z,26.6493,-81.8810,2.11,4.4,201.1,-9999.0,'1111122,1111122,1111122' 
SCCF RECON,ioos:station:SCCF:53:1,2012-06-01T17:15:00Z,26.6493,-81.8810,2.11,5.7,170.0,-9999.0,'1111122,1111122,1111122' 
SCCF RECON,ioos:station:SCCF:53:1,2012-06-01T17:30:00Z,26.6493,-81.8810,2.11,6.2,197.5,-9999.0,'1111122,1111122,1111122' 
SCCF RECON,ioos:station:SCCF:53:1,2012-06-01T17:45:00Z,26.6493,-81.8810,2.11,5.6,200.0,-9999.0,'1111122,1111122,1111122' 
SCCF RECON,ioos:station:SCCF:53:1,2012-06-01T18:00:00Z,26.6493,-81.8810,2.11,5.2,195.8,-9999.0,'1111122,1111122,1111122' 
SCCF RECON,ioos:station:SCCF:53:1,2012-06-01T18:15:00Z,26.6493,-81.8810,2.11,6.6,190.2,-9999.0,'1111122,1111122,1111122' 
SCCF RECON,ioos:station:SCCF:53:1,2012-06-01T18:30:00Z,26.6493,-81.8810,2.11,5.5,177.6,-9999.0,'1111122,1111122,1111122' 
SCCF RECON,ioos:station:SCCF:53:1,2012-06-01T18:45:00Z,26.6493,-81.8810,2.11,6.3,196.5,-9999.0,'1111122,1111122,1111122' 
SCCF RECON,ioos:station:SCCF:53:1,2012-06-01T19:00:00Z,26.6493,-81.8810,2.11,10.3,194.6,-9999.0,'1111122,1111122,1111122' 
SCCF RECON,ioos:station:SCCF:53:1,2012-06-01T19:15:00Z,26.6493,-81.8810,2.11,9.6,198.0,-9999.0,'1111122,1111122,1111122' 
SCCF RECON,ioos:station:SCCF:53:1,2012-06-01T19:30:00Z,26.6493,-81.8810,2.11,5.0,211.1,-9999.0,'1111122,1111122,1111122' 
SCCF RECON,ioos:station:SCCF:53:1,2012-06-01T19:45:00Z,26.6493,-81.8810,2.11,5.9,196.0,-9999.0,'1111122,1111122,1111122' 
SCCF RECON,ioos:station:SCCF:53:1,2012-06-01T20:00:00Z,26.6493,-81.8810,2.11,8.1,194.6,-9999.0,'1111122,1111122,1111122' 
SCCF RECON,ioos:station:SCCF:53:1,2012-06-01T20:15:00Z,26.6493,-81.8810,2.11,9.9,216.3,-9999.0,'1111122,1111122,1111122' 
SCCF RECON,ioos:station:SCCF:53:1,2012-06-01T20:30:00Z,26.6493,-81.8810,2.11,9.2,197.5,-9999.0,'1111122,1111122,1111122' 
SCCF RECON,ioos:station:SCCF:53:1,2012-06-01T20:45:00Z,26.6493,-81.8810,2.11,9.8,206.7,-9999.0,'1111122,1111122,1111122' 
SCCF RECON,ioos:station:SCCF:53:1,2012-06-01T21:00:00Z,26.6493,-81.8810,2.11,8.3,211.1,-9999.0,'1111122,1111122,1111122' 
SCCF RECON,ioos:station:SCCF:53:1,2012-06-01T21:15:00Z,26.6493,-81.8810,2.11,7.1,236.1,-9999.0,'1111122,1111122,1111122' 
SCCF RECON,ioos:station:SCCF:53:1,2012-06-01T21:30:00Z,26.6493,-81.8810,2.11,7.8,243.8,-9999.0,'1111122,1111122,1111122' 
SCCF RECON,ioos:station:SCCF:53:1,2012-06-01T21:45:00Z,26.6493,-81.8810,2.11,5.2,240.4,-9999.0,'1111122,1111122,1111122' 
SCCF RECON,ioos:station:SCCF:53:1,2012-06-01T22:00:00Z,26.6493,-81.8810,2.11,5.8,249.8,-9999.0,'1111122,1111122,1111122' 
SCCF RECON,ioos:station:SCCF:53:1,2012-06-01T22:15:00Z,26.6493,-81.8810,2.11,8.1,214.7,-9999.0,'1111122,1111122,1111122' 
SCCF RECON,ioos:station:SCCF:53:1,2012-06-01T22:30:00Z,26.6493,-81.8810,2.11,9.8,213.6,-9999.0,'1111122,1111122,1111122' 
SCCF RECON,ioos:station:SCCF:53:1,2012-06-01T22:45:00Z,26.6493,-81.8810,2.11,8.4,220.5,-9999.0,'1111122,1111122,1111122' 
SCCF RECON,ioos:station:SCCF:53:1,2012-06-01T23:00:00Z,26.6493,-81.8810,2.11,7.5,227.9,-9999.0,'1111122,1111122,1111122' 
SCCF RECON,ioos:station:SCCF:53:1,2012-06-01T23:15:00Z,26.6493,-81.8810,2.11,7.4,219.0,-9999.0,'1111122,1111122,1111122' 
SCCF RECON,ioos:station:SCCF:53:1,2012-06-01T23:30:00Z,26.6493,-81.8810,2.11,4.2,295.6,-9999.0,'1111122,1111122,1111122' 
SCCF RECON,ioos:station:SCCF:53:1,2012-06-01T23:45:00Z,26.6493,-81.8810,2.11,2.9,279.6,-9999.0,'1111122,1111122,1111122' 
SCCF RECON,ioos:station:SCCF:53:1,2012-06-02T00:00:00Z,26.6493,-81.8810,2.11,4.3,295.7,-9999.0,'1111122,1111122,1111122' 
SCCF RECON,ioos:station:SCCF:53:1,2012-06-02T00:15:00Z,26.6493,-81.8810,2.11,2.0,277.1,-9999.0,'1111122,1111122,1111122' 
SCCF RECON,ioos:station:SCCF:53:1,2012-06-02T00:30:00Z,26.6493,-81.8810,2.11,1.6,272.4,-9999.0,'1111122,1111122,1111122' 
SCCF RECON,ioos:station:SCCF:53:1,2012-06-02T00:45:00Z,26.6493,-81.8810,2.11,2.0,158.2,-9999.0,'1111122,1111122,1111122' 
SCCF RECON,ioos:station:SCCF:53:1,2012-06-02T01:00:00Z,26.6493,-81.8810,2.11,2.2,203.7,-9999.0,'1111122,1111122,1111122' 
SCCF RECON,ioos:station:SCCF:53:1,2012-06-02T01:15:00Z,26.6493,-81.8810,2.11,3.8,233.3,-9999.0,'1111122,1111122,1111122' 
SCCF RECON,ioos:station:SCCF:53:1,2012-06-02T01:30:00Z,26.6493,-81.8810,2.11,1.2,190.8,-9999.0,'1111122,1111122,1111122' 
SCCF RECON,ioos:station:SCCF:53:1,2012-06-02T01:45:00Z,26.6493,-81.8810,2.11,1.7,181.6,-9999.0,'1111122,1111122,1111122' 
SCCF RECON,ioos:station:SCCF:53:1,2012-06-02T02:00:00Z,26.6493,-81.8810,2.11,2.1,159.0,-9999.0,'1111122,1111122,1111122' 
SCCF RECON,ioos:station:SCCF:53:1,2012-06-02T02:15:00Z,26.6493,-81.8810,2.11,2.8,183.4,-9999.0,'1111122,1111122,1111122' 
SCCF RECON,ioos:station:SCCF:53:1,2012-06-02T02:30:00Z,26.6493,-81.8810,2.11,3.0,159.0,-9999.0,'1111122,1111122,1111122' 
SCCF RECON,ioos:station:SCCF:53:1,2012-06-02T02:45:00Z,26.6493,-81.8810,2.11,3.9,185.3,-9999.0,'1111122,1111122,1111122' 
SCCF RECON,ioos:station:SCCF:53:1,2012-06-02T03:00:00Z,26.6493,-81.8810,2.11,3.6,191.6,-9999.0,'1111122,1111122,1111122' 
SCCF RECON,ioos:station:SCCF:53:1,2012-06-02T03:15:00Z,26.6493,-81.8810,2.11,3.3,195.0,-9999.0,'1111122,1111122,1111122' 
SCCF RECON,ioos:station:SCCF:53:1,2012-06-02T03:30:00Z,26.6493,-81.8810,2.11,2.1,207.6,-9999.0,'1111122,1111122,1111122' 
SCCF RECON,ioos:station:SCCF:53:1,2012-06-02T03:45:00Z,26.6493,-81.8810,2.11,3.3,206.7,-9999.0,'1111122,1111122,1111122' 
SCCF RECON,ioos:station:SCCF:53:1,2012-06-02T04:00:00Z,26.6493,-81.8810,2.11,2.7,191.4,-9999.0,'1111122,1111122,1111122' 
SCCF RECON,ioos:station:SCCF:53:1,2012-06-02T04:15:00Z,26.6493,-81.8810,2.11,3.1,197.4,-9999.0,'1111122,1111122,1111122' 
SCCF RECON,ioos:station:SCCF:53:1,2012-06-02T04:30:00Z,26.6493,-81.8810,2.11,3.8,174.4,-9999.0,'1111122,1111122,1111122' 
SCCF RECON,ioos:station:SCCF:53:1,2012-06-02T04:45:00Z,26.6493,-81.8810,2.11,2.5,192.6,-9999.0,'1111122,1111122,1111122' 
SCCF RECON,ioos:station:SCCF:53:1,2012-06-02T05:00:00Z,26.6493,-81.8810,2.11,1.7,199.0,-9999.0,'1111122,1111122,1111122' 
SCCF RECON,ioos:station:SCCF:53:1,2012-06-02T05:15:00Z,26.6493,-81.8810,2.11,4.1,233.2,-9999.0,'1111122,1111122,1111122' 
SCCF RECON,ioos:station:SCCF:53:1,2012-06-02T05:30:00Z,26.6493,-81.8810,2.11,3.7,242.6,-9999.0,'1111122,1111122,1111122' 
SCCF RECON,ioos:station:SCCF:53:1,2012-06-02T05:45:00Z,26.6493,-81.8810,2.11,2.2,233.7,-9999.0,'1111122,1111122,1111122' 
SCCF RECON,ioos:station:SCCF:53:1,2012-06-02T06:00:00Z,26.6493,-81.8810,2.11,3.8,212.7,-9999.0,'1111122,1111122,1111122' 
SCCF RECON,ioos:station:SCCF:53:1,2012-06-02T06:15:00Z,26.6493,-81.8810,2.11,4.9,236.3,-9999.0,'1111122,1111122,1111122' 
SCCF RECON,ioos:station:SCCF:53:1,2012-06-02T06:30:00Z,26.6493,-81.8810,2.11,6.2,226.4,-9999.0,'1111122,1111122,1111122' 
SCCF RECON,ioos:station:SCCF:53:1,2012-06-02T06:45:00Z,26.6493,-81.8810,2.11,4.5,233.1,-9999.0,'1111122,1111122,1111122' 
SCCF RECON,ioos:station:SCCF:53:1,2012-06-02T07:00:00Z,26.6493,-81.8810,2.11,3.3,263.9,-9999.0,'1111122,1111122,1111122' 
SCCF RECON,ioos:station:SCCF:53:1,2012-06-02T07:15:00Z,26.6493,-81.8810,2.11,0.8,322.9,-9999.0,'1111122,1111122,1111122' 
SCCF RECON,ioos:station:SCCF:53:1,2012-06-02T07:30:00Z,26.6493,-81.8810,2.11,2.2,239.2,-9999.0,'1111122,1111122,1111122' 
SCCF RECON,ioos:station:SCCF:53:1,2012-06-02T07:45:00Z,26.6493,-81.8810,2.11,2.3,268.7,-9999.0,'1111122,1111122,1111122' 
SCCF RECON,ioos:station:SCCF:53:1,2012-06-02T08:00:00Z,26.6493,-81.8810,2.11,3.0,274.3,-9999.0,'1111122,1111122,1111122' 
SCCF RECON,ioos:station:SCCF:53:1,2012-06-02T08:15:00Z,26.6493,-81.8810,2.11,4.0,277.1,-9999.0,'1111122,1111122,1111122' 
SCCF RECON,ioos:station:SCCF:53:1,2012-06-02T08:30:00Z,26.6493,-81.8810,2.11,3.6,284.8,-9999.0,'1111122,1111122,1111122' 
SCCF RECON,ioos:station:SCCF:53:1,2012-06-02T08:45:00Z,26.6493,-81.8810,2.11,3.3,280.4,-9999.0,'1111122,1111122,1111122' 
SCCF RECON,ioos:station:SCCF:53:1,2012-06-02T09:00:00Z,26.6493,-81.8810,2.11,3.1,279.2,-9999.0,'1111122,1111122,1111122' 
SCCF RECON,ioos:station:SCCF:53:1,2012-06-02T09:15:00Z,26.6493,-81.8810,2.11,2.4,283.7,-9999.0,'1111122,1111122,1111122' 
SCCF RECON,ioos:station:SCCF:53:1,2012-06-02T09:30:00Z,26.6493,-81.8810,2.11,2.6,282.7,-9999.0,'1111122,1111122,1111122' 
SCCF RECON,ioos:station:SCCF:53:1,2012-06-02T09:45:00Z,26.6493,-81.8810,2.11,2.8,287.3,-9999.0,'1111122,1111122,1111122' 
SCCF RECON,ioos:station:SCCF:53:1,2012-06-02T10:00:00Z,26.6493,-81.8810,2.11,1.9,281.9,-9999.0,'1111122,1111122,1111122' 
SCCF RECON,ioos:station:SCCF:53:1,2012-06-02T10:15:00Z,26.6493,-81.8810,2.11,2.2,271.0,-9999.0,'1111122,1111122,1111122' 
SCCF RECON,ioos:station:SCCF:53:1,2012-06-02T10:30:00Z,26.6493,-81.8810,2.11,2.4,278.2,-9999.0,'1111122,1111122,1111122' 
SCCF RECON,ioos:station:SCCF:53:1,2012-06-02T10:45:00Z,26.6493,-81.8810,2.11,1.4,254.3,-9999.0,'1111122,1111122,1111122' 
SCCF RECON,ioos:station:SCCF:53:1,2012-06-02T11:00:00Z,26.6493,-81.8810,2.11,2.5,226.3,-9999.0,'1111122,1111122,1111122' 
SCCF RECON,ioos:station:SCCF:53:1,2012-06-02T11:15:00Z,26.6493,-81.8810,2.11,1.6,181.6,-9999.0,'1111122,1111122,1111122' 
SCCF RECON,ioos:station:SCCF:53:1,2012-06-02T11:30:00Z,26.6493,-81.8810,2.11,0.8,274.0,-9999.0,'1111122,1111122,1111122' 
SCCF RECON,ioos:station:SCCF:53:1,2012-06-02T11:45:00Z,26.6493,-81.8810,2.11,1.8,243.8,-9999.0,'1111122,1111122,1111122' 
SCCF RECON,ioos:station:SCCF:53:1,2012-06-02T12:00:00Z,26.6493,-81.8810,2.11,2.6,267.2,-9999.0,'1111122,1111122,1111122' 
SCCF RECON,ioos:station:SCCF:53:1,2012-06-02T12:15:00Z,26.6493,-81.8810,2.11,1.7,265.6,-9999.0,'1111122,1111122,1111122' 
SCCF RECON,ioos:station:SCCF:53:1,2012-06-02T12:30:00Z,26.6493,-81.8810,2.11,2.6,260.7,-9999.0,'1111122,1111122,1111122' 
SCCF RECON,ioos:station:SCCF:53:1,2012-06-02T12:45:00Z,26.6493,-81.8810,2.11,3.1,266.2,-9999.0,'1111122,1111122,1111122' 
SCCF RECON,ioos:station:SCCF:53:1,2012-06-02T13:00:00Z,26.6493,-81.8810,2.11,2.9,283.8,-9999.0,'1111122,1111122,1111122' 
SCCF RECON,ioos:station:SCCF:53:1,2012-06-02T13:15:00Z,26.6493,-81.8810,2.11,4.2,287.9,-9999.0,'1111122,1111122,1111122' 
SCCF RECON,ioos:station:SCCF:53:1,2012-06-02T13:30:00Z,26.6493,-81.8810,2.11,4.2,279.4,-9999.0,'1111122,1111122,1111122' 
SCCF RECON,ioos:station:SCCF:53:1,2012-06-02T13:45:00Z,26.6493,-81.8810,2.11,4.6,284.8,-9999.0,'1111122,1111122,1111122' 
SCCF RECON,ioos:station:SCCF:53:1,2012-06-02T14:00:00Z,26.6493,-81.8810,2.11,4.0,293.6,-9999.0,'1111122,1111122,1111122' 
SCCF RECON,ioos:station:SCCF:53:1,2012-06-02T14:15:00Z,26.6493,-81.8810,2.11,5.1,288.7,-9999.0,'1111122,1111122,1111122' 
SCCF RECON,ioos:station:SCCF:53:1,2012-06-02T14:30:00Z,26.6493,-81.8810,2.11,2.9,278.7,-9999.0,'1111122,1111122,1111122' 
SCCF RECON,ioos:station:SCCF:53:1,2012-06-02T14:45:00Z,26.6493,-81.8810,2.11,2.4,274.5,-9999.0,'1111122,1111122,1111122' 
SCCF RECON,ioos:station:SCCF:53:1,2012-06-02T15:00:00Z,26.6493,-81.8810,2.11,2.9,291.8,-9999.0,'1111122,1111122,1111122' 
SCCF RECON,ioos:station:SCCF:53:1,2012-06-02T15:15:00Z,26.6493,-81.8810,2.11,4.7,265.6,-9999.0,'1111122,1111122,1111122' 
SCCF RECON,ioos:station:SCCF:53:1,2012-06-02T15:30:00Z,26.6493,-81.8810,2.11,2.3,293.6,-9999.0,'1111122,1111122,1111122' 
SCCF RECON,ioos:station:SCCF:53:1,2012-06-02T15:45:00Z,26.6493,-81.8810,2.11,4.3,289.9,-9999.0,'1111122,1111122,1111122' 
SCCF RECON,ioos:station:SCCF:53:1,2012-06-02T16:00:00Z,26.6493,-81.8810,2.11,3.2,268.8,-9999.0,'1111122,1111122,1111122' 
SCCF RECON,ioos:station:SCCF:53:1,2012-06-02T16:15:00Z,26.6493,-81.8810,2.11,3.3,259.0,-9999.0,'1111122,1111122,1111122' 
SCCF RECON,ioos:station:SCCF:53:1,2012-06-02T16:30:00Z,26.6493,-81.8810,2.11,4.0,288.0,-9999.0,'1111122,1111122,1111122' 
SCCF RECON,ioos:station:SCCF:53:1,2012-06-02T16:45:00Z,26.6493,-81.8810,2.11,2.9,280.8,-9999.0,'1111122,1111122,1111122' 
SCCF RECON,ioos:station:SCCF:53:1,2012-06-02T17:00:00Z,26.6493,-81.8810,2.11,3.2,286.5,-9999.0,'1111122,1111122,1111122' 
SCCF RECON,ioos:station:SCCF:53:1,2012-06-02T17:15:00Z,26.6493,-81.8810,2.11,4.4,264.5,-9999.0,'1111122,1111122,1111122' 
SCCF RECON,ioos:station:SCCF:53:1,2012-06-02T17:30:00Z,26.6493,-81.8810,2.11,4.0,250.9,-9999.0,'1111122,1111122,1111122' 
SCCF RECON,ioos:station:SCCF:53:1,2012-06-02T17:45:00Z,26.6493,-81.8810,2.11,4.7,281.7,-9999.0,'1111122,1111122,1111122' 
SCCF RECON,ioos:station:SCCF:53:1,2012-06-02T18:00:00Z,26.6493,-81.8810,2.11,2.6,303.7,-9999.0,'1111122,1111122,1111122' 
SCCF RECON,ioos:station:SCCF:53:1,2012-06-02T18:15:00Z,26.6493,-81.8810,2.11,6.6,281.3,-9999.0,'1111122,1111122,1111122' 
SCCF RECON,ioos:station:SCCF:53:1,2012-06-02T18:30:00Z,26.6493,-81.8810,2.11,4.2,280.5,-9999.0,'1111122,1111122,1111122' 
SCCF RECON,ioos:station:SCCF:53:1,2012-06-02T18:45:00Z,26.6493,-81.8810,2.11,5.0,263.6,-9999.0,'1111122,1111122,1111122' 
SCCF RECON,ioos:station:SCCF:53:1,2012-06-02T19:00:00Z,26.6493,-81.8810,2.11,3.6,241.7,-9999.0,'1111122,1111122,1111122' 
SCCF RECON,ioos:station:SCCF:53:1,2012-06-02T19:15:00Z,26.6493,-81.8810,2.11,4.8,264.8,-9999.0,'1111122,1111122,1111122' 
SCCF RECON,ioos:station:SCCF:53:1,2012-06-02T19:30:00Z,26.6493,-81.8810,2.11,5.1,289.5,-9999.0,'1111122,1111122,1111122' 
SCCF RECON,ioos:station:SCCF:53:1,2012-06-02T19:45:00Z,26.6493,-81.8810,2.11,4.9,281.5,-9999.0,'1111122,1111122,1111122' 
SCCF RECON,ioos:station:SCCF:53:1,2012-06-02T20:00:00Z,26.6493,-81.8810,2.11,4.3,238.9,-9999.0,'1111122,1111122,1111122' 
SCCF RECON,ioos:station:SCCF:53:1,2012-06-02T20:15:00Z,26.6493,-81.8810,2.11,5.0,268.7,-9999.0,'1111122,1111122,1111122' 
SCCF RECON,ioos:station:SCCF:53:1,2012-06-02T20:30:00Z,26.6493,-81.8810,2.11,6.8,288.1,-9999.0,'1111122,1111122,1111122' 
SCCF RECON,ioos:station:SCCF:53:1,2012-06-02T20:45:00Z,26.6493,-81.8810,2.11,5.0,265.7,-9999.0,'1111122,1111122,1111122' 
SCCF RECON,ioos:station:SCCF:53:1,2012-06-02T21:00:00Z,26.6493,-81.8810,2.11,6.8,267.7,-9999.0,'1111122,1111122,1111122' 
SCCF RECON,ioos:station:SCCF:53:1,2012-06-02T21:15:00Z,26.6493,-81.8810,2.11,3.0,271.0,-9999.0,'1111122,1111122,1111122' 
SCCF RECON,ioos:station:SCCF:53:1,2012-06-02T21:30:00Z,26.6493,-81.8810,2.11,7.2,281.9,-9999.0,'1111122,1111122,1111122' 
SCCF RECON,ioos:station:SCCF:53:1,2012-06-02T21:45:00Z,26.6493,-81.8810,2.11,5.8,286.2,-9999.0,'1111122,1111122,1111122' 
SCCF RECON,ioos:station:SCCF:53:1,2012-06-02T22:00:00Z,26.6493,-81.8810,2.11,6.2,284.5,-9999.0,'1111122,1111122,1111122' 
SCCF RECON,ioos:station:SCCF:53:1,2012-06-02T22:15:00Z,26.6493,-81.8810,2.11,5.3,285.9,-9999.0,'1111122,1111122,1111122' 
SCCF RECON,ioos:station:SCCF:53:1,2012-06-02T22:30:00Z,26.6493,-81.8810,2.11,6.5,294.4,-9999.0,'1111122,1111122,1111122' 
SCCF RECON,ioos:station:SCCF:53:1,2012-06-02T22:45:00Z,26.6493,-81.8810,2.11,4.9,291.4,-9999.0,'1111122,1111122,1111122' 
SCCF RECON,ioos:station:SCCF:53:1,2012-06-02T23:00:00Z,26.6493,-81.8810,2.11,4.7,272.5,-9999.0,'1111122,1111122,1111122' 
SCCF RECON,ioos:station:SCCF:53:1,2012-06-02T23:15:00Z,26.6493,-81.8810,2.11,6.4,275.8,-9999.0,'1111122,1111122,1111122' 
SCCF RECON,ioos:station:SCCF:53:1,2012-06-02T23:30:00Z,26.6493,-81.8810,2.11,2.6,279.3,-9999.0,'1111122,1111122,1111122' 
SCCF RECON,ioos:station:SCCF:53:1,2012-06-02T23:45:00Z,26.6493,-81.8810,2.11,4.8,280.3,-9999.0,'1111122,1111122,1111122' 
SCCF RECON,ioos:station:SCCF:53:1,2012-06-03T00:00:00Z,26.6493,-81.8810,2.11,4.4,294.2,-9999.0,'1111122,1111122,1111122' 
SCCF RECON,ioos:station:SCCF:53:1,2012-06-03T00:15:00Z,26.6493,-81.8810,2.11,4.7,291.3,-9999.0,'1111122,1111122,1111122' 
SCCF RECON,ioos:station:SCCF:53:1,2012-06-03T00:30:00Z,26.6493,-81.8810,2.11,3.7,294.3,-9999.0,'1111122,1111122,1111122' 